Theta_e
310 309 309 309 309 310 309 309 309 309 309 309 310 310 311 312 313 305 304 311 314 317 316 307 305 304 304 301 303 304 295 291 294 294 296 301 299 304 307 307 308 313 313 317 324
309 309 309 308 309 308 309 309 309 309 309 309 310 310 310 311 304 301 312 314 315 315 306 302 300 302 299 299 300 297 292 293 298 298 297 299 300 302 302 304 305 310 315 321 324
308 308 308 308 308 309 309 309 309 309 309 309 309 309 309 308 297 301 311 311 311 311 306 304 301 299 296 298 298 296 291 296 296 298 299 298 299 302 300 300 305 305 312 319 321
308 308 308 308 308 308 308 308 309 309 309 308 308 309 309 303 285 302 309 309 309 306 304 301 298 295 293 292 296 292 296 296 297 297 297 296 299 298 300 301 303 306 312 317 319
307 307 307 307 307 308 308 309 308 308 307 308 308 308 302 293 293 304 308 307 303 302 300 299 295 294 291 293 293 291 293 295 297 296 296 297 295 296 297 300 302 302 303 307 313
307 306 307 307 307 307 307 308 307 307 307 307 307 308 298 287 302 304 306 305 303 301 298 300 297 298 293 292 291 294 293 293 295 294 295 293 294 296 297 301 300 301 301 302 304
306 306 306 306 307 307 307 306 306 306 306 306 306 303 295 291 302 304 302 304 304 301 296 300 301 297 296 292 295 294 289 292 293 294 293 295 290 291 297 298 298 299 300 301 303
306 306 306 306 306 306 306 305 305 305 305 304 304 300 290 300 303 299 300 301 305 304 300 301 302 298 295 296 293 289 290 285 292 293 294 292 286 294 298 297 296 298 299 300 301
306 306 306 306 306 306 304 304 303 303 303 303 300 297 289 303 295 298 299 297 302 303 301 301 299 293 293 287 285 288 283 286 289 294 293 291 288 295 298 297 296 297 298 299 299
306 306 305 306 305 304 303 303 301 301 300 300 299 292 294 291 295 296 300 299 299 299 297 296 293 288 287 284 277 281 283 285 285 291 289 288 288 293 296 294 295 295 297 297 297
306 305 305 305 304 303 301 297 292 290 294 288 289 290 292 297 299 296 299 295 295 293 286 290 285 283 284 286 285 284 283 282 285 287 285 285 286 289 293 294 293 293 295 296 296
305 305 304 304 303 302 300 291 292 293 285 291 291 293 295 296 289 292 297 290 288 283 286 284 282 287 288 287 285 284 281 281 285 287 286 285 285 288 290 291 292 292 293 295 296
304 304 304 304 302 299 296 294 300 297 287 286 289 291 293 295 289 289 293 289 286 283 283 280 283 288 286 284 282 283 281 281 281 285 287 284 282 285 289 291 292 293 294 295 295
304 304 304 304 297 297 294 299 300 298 282 279 285 290 289 290 287 293 293 288 284 281 282 283 285 284 283 281 282 278 285 284 283 281 276 284 275 283 287 287 289 291 293 294 295
304 304 304 302 297 293 296 300 298 293 271 280 283 293 289 284 285 287 293 288 281 281 282 279 280 281 279 281 284 281 286 283 282 280 279 280 277 281 286 285 287 290 292 293 292
304 303 303 299 300 298 301 299 293 280 269 277 283 281 282 283 283 286 286 289 288 283 283 282 286 284 282 284 284 286 283 282 282 280 273 278 277 278 282 285 287 289 290 291 291
303 302 299 300 293 300 300 292 280 273 278 275 277 280 280 279 280 281 280 280 278 274 275 278 280 283 285 280 284 283 279 272 271 271 271 280 277 280 285 287 287 287 288 289 290
303 299 298 298 301 301 295 286 272 273 274 280 279 279 276 279 278 279 278 277 281 279 276 273 271 279 284 281 278 278 278 272 267 269 272 278 273 279 285 287 288 290 287 287 287
299 299 297 299 301 298 288 277 275 274 278 277 278 274 275 277 277 277 277 277 279 280 273 272 272 281 282 283 281 277 274 280 273 274 270 274 279 284 284 283 284 284 285 285 287
297 294 294 299 300 294 284 277 276 279 280 278 272 274 272 274 274 275 275 279 278 280 280 277 271 279 280 281 282 279 281 272 274 265 264 270 273 275 280 280 282 283 285 286 288
295 288 294 298 297 287 278 278 277 281 281 277 275 274 275 274 275 274 275 279 281 280 280 279 276 275 278 276 275 276 275 276 275 272 266 265 270 281 281 282 282 284 286 286 287
291 283 294 297 283 282 278 278 280 280 283 280 280 278 276 276 274 274 274 278 282 282 277 280 277 271 274 280 281 279 276 276 271 269 272 270 270 282 283 283 283 283 285 287 287
285 286 293 293 278 278 279 277 280 279 280 279 278 279 279 276 272 276 277 281 283 280 278 280 275 269 271 276 279 275 277 277 277 275 270 268 270 282 283 283 284 284 285 286 286
284 280 284 286 286 280 278 277 276 281 280 280 279 280 278 275 277 274 276 279 282 281 283 282 275 272 269 272 276 273 275 277 275 271 271 271 273 277 280 281 283 284 285 286 286
284 282 285 279 279 280 281 279 276 275 280 280 278 278 277 273 274 274 277 278 280 281 280 279 272 274 275 276 276 275 275 275 274 274 270 273 273 277 280 281 283 284 285 285 285
284 283 280 282 281 281 281 278 276 277 278 276 275 278 278 275 276 274 276 277 276 278 278 279 272 274 270 275 274 272 275 275 275 276 275 276 275 282 284 284 283 284 285 284 285
285 284 284 283 281 278 280 280 279 280 280 280 279 278 276 278 281 282 282 281 280 277 276 275 274 271 267 272 272 267 272 274 275 277 277 273 277 282 281 282 283 284 284 284 285
Wind_Speed
17 17 17 18 18 18 19 18 19 19 19 19 20 21 22 23 23 10 5 10 12 19 18 11 7 6 7 5 5 5 10 13 16 12 9 5 8 5 3 5 3 3 6 7 13
16 17 18 18 18 19 19 20 20 20 19 20 20 19 19 22 17 5 9 13 15 18 12 9 7 9 8 8 5 9 12 17 14 6 8 4 7 6 7 9 8 8 7 8 9
16 17 17 17 18 18 19 20 20 20 20 20 21 20 17 18 7 5 11 16 18 17 9 9 8 6 10 9 11 9 17 14 6 7 7 5 6 3 8 7 11 12 12 9 8
16 17 17 18 20 21 20 20 20 20 20 21 19 18 13 7 4 5 15 18 17 13 8 9 6 6 7 11 13 11 13 15 9 1 6 8 7 7 8 3 8 6 5 8 9
17 17 18 19 20 21 22 23 23 22 21 20 19 13 6 3 4 12 18 16 10 10 7 7 8 9 11 8 6 14 16 5 13 6 9 6 11 14 14 11 7 5 4 6 7
15 17 19 20 21 23 24 23 24 24 20 16 16 8 4 2 7 14 13 10 10 7 5 5 5 9 9 7 10 7 7 9 9 12 7 10 15 16 11 15 16 12 11 10 10
16 16 18 20 22 24 25 25 25 20 14 13 11 4 2 6 9 11 15 6 7 5 5 2 4 6 7 8 4 9 11 15 16 12 12 7 19 22 15 18 15 14 14 13 13
14 15 17 20 22 25 26 26 21 14 13 9 4 3 4 5 9 15 17 11 7 3 4 6 5 4 5 5 6 6 15 17 17 19 13 8 23 16 19 19 21 21 17 16 15
15 16 18 19 21 22 27 25 12 10 11 3 3 5 7 7 16 13 10 12 8 4 1 2 4 6 3 6 11 14 19 24 21 15 12 17 18 14 13 16 15 13 13 12 8
15 16 18 19 21 19 24 17 6 6 5 5 5 4 15 15 12 10 9 10 6 7 3 2 4 6 7 10 16 16 19 19 19 16 8 20 22 18 14 8 10 13 13 11 13
15 17 18 19 20 17 16 5 5 3 12 7 8 4 7 13 5 12 8 8 6 5 6 5 6 7 9 11 15 15 17 17 15 4 6 15 19 19 17 17 16 16 17 17 17
15 17 18 20 16 13 11 7 8 5 7 5 6 4 3 8 8 15 15 9 7 8 8 8 9 9 3 6 10 13 16 20 19 18 10 17 25 22 22 21 21 21 21 21 19
14 15 18 20 11 5 8 10 6 2 5 3 2 5 7 8 6 10 14 12 9 11 11 6 10 3 6 7 10 14 14 14 15 10 14 17 25 24 24 26 25 23 22 21 21
13 15 17 21 5 8 4 9 8 3 3 6 4 4 9 14 4 4 7 7 11 9 10 4 5 6 10 14 13 16 14 12 12 12 12 2 11 15 4 6 9 12 12 14 16
13 14 15 8 8 5 7 9 6 4 4 7 3 4 13 7 9 4 4 6 10 12 6 8 9 9 11 10 8 12 7 9 12 14 16 18 14 10 17 14 11 11 9 2 4
11 12 14 4 5 5 9 9 3 4 1 3 4 11 15 7 9 6 7 6 6 8 10 14 10 7 10 11 11 10 9 13 12 10 11 17 16 12 13 12 6 1 9 4 3
10 9 6 4 6 10 8 3 3 4 2 2 6 9 14 8 8 8 15 10 6 7 10 13 13 8 5 10 8 9 9 7 7 9 11 15 13 15 6 3 3 2 5 5 4
10 6 3 3 5 7 5 2 5 3 2 2 6 13 5 8 6 11 11 9 7 6 11 10 10 2 2 9 8 8 7 7 8 6 6 9 6 6 9 8 6 6 5 5 6
5 3 3 3 4 4 3 3 3 3 1 5 10 4 3 3 5 7 9 7 5 4 7 9 9 4 6 7 5 5 8 7 9 14 11 9 9 10 8 7 10 9 6 6 7
4 4 2 4 5 3 1 4 2 1 1 2 4 2 5 6 6 6 5 1 5 1 1 6 11 9 9 3 13 14 9 9 7 10 15 14 17 12 10 8 6 6 2 4 7
3 3 4 4 3 1 3 3 4 6 4 4 4 6 8 9 6 7 6 9 5 6 2 8 9 13 4 9 13 8 9 10 8 10 12 14 12 3 5 4 3 9 11 9 8
1 3 3 3 2 1 3 4 2 5 7 6 6 10 11 9 8 8 9 6 7 8 11 10 6 11 18 17 16 13 19 17 11 11 13 14 15 18 15 18 15 10 13 10 11
2 2 2 2 5 4 3 4 5 6 8 5 6 9 6 7 6 10 12 5 9 11 5 6 6 10 11 12 10 9 16 15 15 14 19 17 17 16 20 21 19 16 13 14 13
2 3 3 3 3 5 6 6 6 10 12 7 8 10 11 11 15 11 11 7 7 9 14 12 13 17 16 20 15 10 14 14 15 14 17 19 24 23 22 22 22 21 19 18 14
4 5 2 5 8 14 8 4 9 8 10 9 6 17 11 7 13 19 20 17 17 16 16 7 13 15 21 23 23 23 22 23 24 21 21 22 25 24 24 25 24 23 20 20 20
5 5 4 3 3 12 16 11 17 13 9 8 15 13 17 17 20 16 18 15 15 12 13 12 16 13 20 19 22 25 26 24 24 27 27 27 27 27 26 24 23 22 22 19 18
2 2 4 9 8 11 16 19 16 13 13 19 16 16 19 22 20 19 18 17 16 17 16 15 13 10 23 15 18 21 18 23 25 26 27 25 25 23 23 23 21 20 20 19 18
Wind_Direction
11 10 8 2 358 355 353 350 348 346 344 339 337 338 336 332 327 318 30 349 339 328 312 302 266 286 257 242 253 280 245 240 230 233 248 137 216 163 4 247 209 124 39 93 131
8 6 2 358 354 351 348 346 345 341 338 334 333 331 333 329 322 297 9 2 347 341 326 338 323 321 249 242 223 232 235 244 258 274 259 213 241 182 214 199 195 167 105 116 148
6 1 358 355 349 345 345 341 338 335 333 332 330 326 327 325 303 85 7 359 349 337 313 304 297 289 263 240 224 232 244 253 248 273 287 273 229 220 233 209 223 204 145 149 157
7 1 357 352 347 343 340 335 333 332 330 330 329 327 320 307 296 31 348 349 339 336 323 310 276 248 252 234 240 251 244 267 275 307 252 243 268 248 231 175 68 62 106 153 178
5 358 353 347 343 339 336 333 333 333 328 327 332 335 321 294 338 341 340 342 333 336 350 341 290 267 252 254 251 240 256 263 264 264 263 261 246 255 256 252 245 205 226 198 199
4 354 349 348 344 338 333 333 335 331 328 328 332 327 309 327 342 353 348 344 351 332 329 327 322 325 289 274 248 358 291 256 254 260 247 255 246 242 241 252 259 242 232 233 226
4 359 353 347 344 339 332 333 333 332 328 330 336 333 299 357 340 346 352 5 352 326 305 318 322 279 335 256 292 276 268 251 235 245 257 267 251 240 239 259 245 247 240 238 240
358 353 350 349 346 339 333 333 333 337 334 338 335 342 40 346 336 352 349 356 16 6 279 300 290 294 258 325 244 259 253 260 238 229 225 221 262 255 224 234 244 240 241 244 228
355 352 350 349 347 342 333 336 339 331 329 313 292 315 34 334 344 333 338 337 331 21 213 306 248 254 209 246 260 242 260 259 253 215 223 218 268 259 281 225 235 241 239 239 251
352 349 347 348 349 350 334 336 323 305 10 229 0 217 23 356 346 319 327 334 329 320 241 244 232 245 223 235 239 243 243 245 260 260 245 252 259 261 263 254 252 259 247 214 230
346 345 345 347 350 357 348 347 4 60 18 26 342 8 347 345 316 24 346 311 329 298 348 338 290 250 261 241 269 295 289 275 283 349 294 271 273 267 264 259 254 260 255 253 248
349 346 346 346 350 7 21 57 45 341 316 358 342 338 324 325 -0 23 2 23 -0 13 345 280 256 332 14 313 278 265 263 262 268 273 303 278 271 272 266 261 261 259 259 260 262
350 348 344 341 335 0 44 41 342 276 268 351 346 341 1 327 343 5 1 349 351 344 350 302 319 288 277 286 281 253 258 271 272 263 249 273 273 262 250 246 248 253 256 260 262
346 347 345 334 280 344 44 355 335 255 271 16 8 59 345 323 236 5 4 326 307 320 334 287 326 303 286 268 259 268 274 293 273 265 262 224 283 300 288 230 238 250 245 243 245
338 343 346 5 319 345 346 332 327 238 262 354 359 328 338 345 308 101 2 310 303 318 277 279 320 316 298 298 307 283 357 289 280 275 274 261 262 280 249 256 263 262 249 111 33
340 340 336 316 292 360 326 320 238 237 248 344 322 341 343 353 348 313 340 294 279 294 283 277 295 278 294 305 281 271 281 264 247 248 246 246 237 261 252 261 302 175 41 87 77
329 341 336 312 333 328 321 269 273 255 35 332 334 338 325 329 320 333 324 324 304 310 311 321 285 267 275 283 244 238 254 267 225 219 247 245 238 239 193 147 92 51 97 81 71
336 329 17 11 325 327 301 283 251 50 270 357 316 314 291 357 338 336 319 339 1 305 283 304 323 330 123 270 320 299 283 286 299 279 307 357 223 263 48 60 47 97 102 96 63
322 305 280 15 332 319 326 255 308 193 26 316 311 289 303 306 323 320 312 302 334 354 324 317 284 313 268 280 304 5 249 336 304 284 266 261 259 258 147 141 130 129 120 76 46
313 301 268 344 331 302 285 273 252 247 281 280 276 247 284 320 316 330 301 261 304 66 150 303 289 293 326 279 254 247 327 285 233 267 267 269 269 272 164 167 152 139 81 352 344
288 312 70 349 292 342 247 249 263 223 222 246 251 278 259 293 265 293 268 290 283 332 251 288 256 275 235 238 265 232 240 236 272 276 284 276 267 2 78 118 260 300 306 295 296
79 245 57 308 259 287 229 208 223 235 201 258 262 266 262 282 279 271 251 243 288 313 292 266 290 280 277 281 280 270 275 264 248 262 241 254 261 290 290 289 284 299 288 278 274
227 274 93 274 252 219 185 239 251 235 231 210 233 231 257 260 275 261 264 280 283 289 274 356 248 282 273 262 224 249 252 247 261 276 265 271 272 275 285 290 294 280 261 273 287
141 267 176 201 251 258 225 228 225 226 238 228 250 251 255 248 249 263 266 272 277 261 264 294 259 261 273 283 299 258 285 265 256 258 260 254 264 261 267 276 279 279 279 281 283
199 225 235 190 219 228 220 232 210 215 219 218 250 231 229 248 253 254 259 273 270 274 275 245 260 265 269 273 276 274 258 254 266 259 256 262 267 275 279 278 285 291 294 284 275
184 214 172 261 228 234 219 215 226 225 199 216 228 227 235 238 234 274 283 287 277 283 259 251 268 282 282 281 279 276 270 272 266 262 255 255 259 265 271 278 276 271 272 277 286
182 160 208 202 211 222 226 232 232 225 233 232 229 236 245 242 253 265 275 278 272 270 259 263 267 263 270 283 295 276 253 256 260 261 262 262 268 278 280 273 272 279 287 292 289